sat.trackr.live / text

‹ back to catalog

SES-7 (PROTOSTAR 2)

NORAD 34941 · 2009-027A

PAYLOAD ACTIVE UNKNOWN

§ Identity

Operator
Country
SES
Launch date
2009-05-16
Launch site
TYMSC
Launch vehicle
Mass (kg)
RCS (m²)
10.00

Purposes: comms

External: N2YO · Heavens-Above · Gunter

§ Orbital elements

Epoch: 2026-05-25T00:50:06.338112Z

Period
1,436.12 min
Inclination
0.0759°
Eccentricity
0.0000686
Mean motion
1.00270060 rev/d
Perigee alt
35,784.2 km
Apogee alt
35,790.0 km
Semi-major
42,165.2 km
B*
0.0000e+0
RAAN
82.9158°
Arg perigee
310.6492°
Mean anomaly
329.8369°
Rev number
6,239

§ Raw data

SES-7 (PROTOSTAR 2)1 34941U 09027A   26145.03479558 -.00000347  00000+0  00000+0 0  99912 34941   0.0759  82.9158 0000686 310.6492 329.8369  1.00270060 62398

JSON: /api/v1/satellites/34941 · /tle

For live sub-satellite position, see the globe view (requires WebGL).

§ Visibility from observer

Set your observer location to see the next 7 days of passes ≥ 10°. The values pass through the URL so the page stays shareable.

No JS? Fill the form by hand. The geolocation button needs JavaScript.